Regional Weather Roundup
Issued by NWS

Home | Current Version | Previous Version | Graphics & Text | Print | Product List | Glossary On
Versions: 1 2 3 4 5 6 7 8 9 10 11 12 13 14 15 16 17 18 19 20 21 22 23 24 25 26 27
000
ASUS45 KCYS 241710
RWRWY

WYOMING REGIONAL WEATHER ROUNDUP
NATIONAL WEATHER SERVICE CHEYENNE WY
1100 AM MDT SUN SEP 24 2017

NOTE:  "FAIR" INDICATES FEW OR NO CLOUDS BELOW 12,000 FEET
WITH NO SIGNIFICANT WEATHER AND/OR OBSTRUCTIONS TO VISIBILITY.

WYZ001-241800-
YELLOWSTONE NATIONAL PARK

CITY           SKY/WX    TMP DP  RH WIND       PRES   REMARKS
LK YELLOWSTONE NOT AVBL
W YELLOWSTONE  NOT AVBL

$$
WYZ002>013-054>058-071-098>099-241800-
NORTHERN WYOMING

CITY           SKY/WX    TMP DP  RH WIND       PRES   REMARKS
JACKSON        FAIR      47  30  51 N17       29.96F
CODY           CLOUDY    40  34  79 N10       30.11R WCI  33
GREYBULL       CLOUDY    46  39  76 NW6       30.07R
WORLAND        CLOUDY    42  41  96 NW8       30.06S
SHERIDAN       PTSUNNY   43  40  89 N8        30.11S
BUFFALO        CLOUDY    40  36  86 N15G21    30.10R WCI  32
GILLETTE       CLOUDY    43  41  93 N10       30.08R
HULETT         CLOUDY    41  39  93 NW7       30.09R
NEWCASTLE      CLOUDY    46  36  66 N10G17    30.05R

$$
WYZ014>020-022>026-101>103-241800-
CENTRAL WYOMING

CITY           SKY/WX    TMP DP  RH WIND       PRES   REMARKS
BIG PINEY      CLOUDY    41  36  82 S15       29.97R
PINEDALE       CLOUDY    43  32  65 S13       29.95R
DUBOIS         CLOUDY    34  30  86 SE14G21   30.02R WCI  24
LANDER         LGT RAIN  37  35  92 W6        30.06R WCI  32
RIVERTON       LGT RAIN  38  37  97 E7        30.06R FOG     WCI  33
CASPER         LGT RAIN  40  36  86 NE13      30.06S WCI  32
DOUGLAS        CLOUDY    42  37  82 N7        30.07S

$$
WYZ021-027>030-104>119-241800-
SOUTHERN WYOMING

CITY           SKY/WX    TMP DP  RH WIND       PRES   REMARKS
EVANSTON       SNOW      33  33 100 N10       29.93R VSB 1/4 WCI  25
FORT BRIDGER   SNOW      33  33 100 NE10      29.94S VSB 1/4 WCI  25
ROCK SPRINGS   CLOUDY    37  32  82 E20G32    29.96R WCI  27
DIXON          CLOUDY    45  36  71 W5        29.97R
RAWLINS        CLOUDY    40  37  89 NE15      29.98F WCI  32
SARATOGA       CLOUDY    45  37  76 NW10      29.98R
LARAMIE        CLOUDY    43  36  76 E17       29.99R
CHEYENNE       LGT RAIN  41  40  96 NE10      30.03R FOG
TORRINGTON     CLOUDY    46  44  93 N6        30.04R
PINE BLUFFS    CLOUDY    43  43 100 MISG      30.03S

$$




USA.gov is the U.S. government's official web portal to all federal, state and local government web resources and services.